Location: Arbon
(43.0005°N, 0.7472°E)
Time: 20:45:54
(UTC+00:00)

Explorer 7 - Pass Details

Date: 02 December 2020
Orbit: 484 x 678 km, 50.3° (Epoch: 25 January)

Event Time Altitude Azimuth Distance (km) Brightness Sun altitude
Rises 06:29:37 0° 298° (WNW) 2,764 - -7.4°
Exits shadow 06:31:43 - 295° (WNW) 1,925 8.9 -7.1°
Reaches altitude 10° 06:31:58 10° 295° (WNW) 1,830 8.8 -7.0°
Maximum altitude 06:36:03 58° 216° (SW) 619 7.0 -6.3°
Drops below altitude 10° 06:39:52 10° 137° (SE) 1,721 10.7 -5.7°
Sets 06:42:01 0° 133° (SE) 2,580 12.0 -5.4°
